Regional Weather Roundup
Issued by NWS

Home | Current Version | Previous Version | Text Only | Print | Product List | Glossary On
Versions: 1 2 3 4 5 6 7 8 9 10 11 12 13 14 15 16 17 18 19 20 21 22 23 24 25 26 27 28 29 30 31 32 33 34 35 36 37 38 39 40 41 42 43 44 45 46 47 48 49 50
385
ASUS43 KDTX 182310
RWRMI
MICHIGAN HOURLY REGIONAL WEATHER ROUNDUP
NATIONAL WEATHER SERVICE DETROIT/PONTIAC MI
600 PM EST MON NOV 18 2019

NOTE: "FAIR" INDICATES FEW OR NO CLOUDS BELOW 12,000 FEET WITH NO
SIGNIFICANT WEATHER AND/OR OBSTRUCTION TO VISIBILITY.

MIZ047>049-052>055-059>063-066>070-074>076-081>083-190000-
SOUTHEAST LOWER MICHIGAN

CITY           SKY/WX    TMP DP  RH WIND       PRES   REMARKS
ADRIAN         FAIR      40  31  70 CALM      29.73R
ALMA           CLOUDY    36  32  85 CALM      29.74S
ANN ARBOR      FAIR      33  28  81 CALM      29.72R
BAD AXE        CLOUDY    36  33  88 NW6       29.73R WCI  31
CARO           MOCLDY    35  30  82 N3        29.74R
DETROIT CITY   FAIR      41  33  73 CALM      29.73R
DETROIT        FAIR      41  31  67 S3        29.73R
FLINT          FAIR      38  31  76 N5        29.74R WCI  34
GROSSE ILE     FAIR      39  33  81 CALM      29.72R
HILLSDALE      FAIR      39  30  69 CALM      29.72R
HOWELL         FAIR      37  29  71 CALM      29.72R

CITY           SKY/WX    TMP DP  RH WIND       PRES   REMARKS
JACKSON        FAIR      38  28  67 S3        29.72R
LAMBERTVILLE   FAIR      39  32  75 CALM      29.73R
LANSING        FAIR      37  29  72 NE3       29.73R
LAPEER         FAIR      36  32  85 CALM      29.73R
MASON          FAIR      40  30  68 CALM      29.72S
MONROE         FAIR      35  30  81 CALM      29.73R
MT. CLEMENS    PTCLDY    43  32  65 CALM      29.71S
PONTIAC        FAIR      40  30  67 E3        29.71R
PORT HOPE        N/A     37  33  85 NW3       29.73S
PORT HURON     FAIR      37  32  81 CALM      29.74R
TRI CITIES     CLOUDY    36  31  82 NE5       29.75R HAZE    WCI  32
MIDLAND        CLOUDY    34  32  94 CALM      29.74R FOG
TROY           FAIR      41  36  81 CALM      29.75R
SAGINAW HB     MOCLDY    34  30  86 CALM      29.74S
$$
MIZ043>046-050>051-056>058-064>065-071>073-077>080-190000-
SOUTHWEST LOWER MICHIGAN

CITY           SKY/WX    TMP DP  RH WIND       PRES   REMARKS
BATTLE CREEK   CLOUDY    40  35  83 NW5       29.74R
BENTON HARBOR  CLOUDY    39  35  86 W6        29.76R FOG     WCI  35
BIG RAPIDS     CLOUDY    38  36  94 CALM      29.72S FOG
COLDWATER      CLOUDY    39  30  69 W3        29.74R
FREMONT        FOG       37  37 100 CALM      29.73S VSB 1
HOLLAND        FOG       37  37 100 CALM      29.75R VSB 3/4
GRAND RAPIDS   CLOUDY    41  36  82 SW8       29.74R HAZE
IONIA          CLOUDY    38  32  77 CALM      29.72S
KALAMAZOO      CLOUDY    39  36  89 W7        29.75R FOG     WCI  34
LUDINGTON      FOG       35  34  96 CALM      29.74S VSB 1/2
MARSHALL       FAIR      38  31  74 SW3       29.73R
MOUNT PLEASANT CLOUDY    37  32  83 CALM      29.73S
MUSKEGON       DRZL/FOG  39  36  89 N3        29.75R VSB 1/2
SOUTH HAVEN    CLOUDY    39  39 100 CALM      29.75S FOG
$$
MIZ016>042-190000-
NORTHERN LOWER MICHIGAN

CITY           SKY/WX    TMP DP  RH WIND       PRES   REMARKS
ALPENA         CLOUDY    38  30  73 CALM      29.74S
BEAVER ISLAND  FOG       36  36 100 CALM      29.72S VSB 1
BELLAIRE       FOG       36  35  96 CALM      29.74R VSB 1/2
CADILLAC       FOG       35  32  90 CALM      29.70R VSB 3/4
CHARLEVOIX     CLOUDY    36  34  92 CALM      29.75R FOG
FRANKFORT      CLOUDY    34  33  96 CALM      29.73S FOG
GAYLORD        CLOUDY    35  31  85 SW3       29.70S
GRAYLING       CLOUDY    35  30  81 CALM      29.71R
HARBOR SPRINGS CLOUDY    38  37  99 SW3       29.72S
HOUGHTON LAKE  CLOUDY    32  27  81 S3        29.72S
MANISTEE       LGT RAIN  35  34  96 CALM      29.73S VSB 1/4
OSCODA         CLOUDY    37  27  68 CALM      29.75R
PELLSTON       CLOUDY    37  34  89 S3        29.73R
ROGERS CITY    CLOUDY    37  31  78 S5        29.74S WCI  33
TRAVERSE CITY  DRIZZLE   37  34  89 CALM      29.72R FOG
$$
MIZ007>008-015-190000-
EASTERN UPPER MICHIGAN

CITY           SKY/WX    TMP DP  RH WIND       PRES   REMARKS
KINROSS        CLOUDY    36  30  79 SE3       29.72S
MACKINAC ISLAN CLOUDY    37  35  92 CALM      29.72R
NEWBERRY       FOG       37  35  91 CALM      29.71R VSB 1/2
S. S. MARIE    CLOUDY    38  31  76 E3        29.72S
MUNISING         N/A     35  34  96 S5        29.71R WCI  31
$$
MIZ004>006-011>014-085-190000-
CENTRAL UPPER MICHIGAN

CITY           SKY/WX    TMP DP  RH WIND       PRES   REMARKS
MANISTIQUE     CLOUDY    35  35 100 CALM      29.71S FOG
ESCANABA       MIX PCPN  36  34  92 CALM      29.74R FOG
MENOMINEE      CLOUDY    37  31  78 SW5       29.74R WCI  33
$$
MIZ001>003-009>011-084-190000-
WESTERN UPPER MICHIGAN

CITY           SKY/WX    TMP DP  RH WIND       PRES   REMARKS
IRON MOUNTAIN  CLOUDY    36  30  79 CALM      29.70R
HOUGHTON       CLOUDY    33  30  88 NW6       29.71R FOG     WCI  28
COPPER HARBOR    N/A     37  32  82 CALM      29.72R
IRONWOOD       CLOUDY    29  26  89 SE3       29.71F
$$

ABBREVIATIONS USED IN REMARKS
   TC - TEMPERATURE IN CELSIUS
  WCI - WIND CHILL INDEX
   HX - HEAT INDEX
  VSB - VISIBILITY





USA.gov is the U.S. government's official web portal to all federal, state and local government web resources and services.